Regional Weather Roundup
Issued by NWS

Home | Current Version | Previous Version | Graphics & Text | Print | Product List | Glossary On
Versions: 1 2 3 4 5 6 7 8 9 10 11 12 13 14 15 16 17 18 19 20 21 22 23 24 25 26 27 28
000
ASUS45 KPSR 280310
RWRAZ

ARIZONA HOURLY REGIONAL WEATHER ROUNDUP
NATIONAL WEATHER SERVICE PHOENIX AZ
800 PM MST WED APR 27 2016

NOTE: FAIR INDICATES FEW OR NO CLOUDS BELOW 12,000 FEET WITH NO
SIGNIFICANT WEATHER AND/OR OBSTRUCTIONS TO VISIBILITY.

AZZ001>003-036-280400-
NORTHWEST ARIZONA

CITY           SKY/WX    TMP DP  RH WIND       PRES   REMARKS
BULLHEAD CITY  MOCLDY    79  27  14 SW9       29.55R
KINGMAN        PTCLDY    62  24  23 S9        29.66S
$$

AZZ004>008-015-016-018-280400-
NORTH CENTRAL ARIZONA

CITY           SKY/WX    TMP DP  RH WIND       PRES   REMARKS
GRAND CANYON   CLOUDY    47  31  53 W7        29.81R
WILLIAMS       CLOUDY    50  23  34 SW16G28   29.87S
PRESCOTT       CLOUDY    57  26  30 S12       29.76S
FLAGSTAFF      CLOUDY    46  26  45 SW24G36   29.82R
PAYSON         CLOUDY    57  21  24 CALM      29.82S
PAGE           LGT RAIN  53  41  63 W7        29.74R
$$

AZZ009>014-017-280400-
NORTHEAST ARIZONA

CITY           SKY/WX    TMP DP  RH WIND       PRES   REMARKS
WINSLOW        PTCLDY    58  22  24 SW14      29.76R
SAINT JOHNS    MOCLDY    59  15  18 SW14G23   29.79R
WINDOW ROCK    CLOUDY    56  23  27 MISG      29.80R
SHOW LOW       PTCLDY    48  14  25 SW9       29.84R
$$

AZZ023-280400-
GREATER PHOENIX AREA

CITY           SKY/WX    TMP DP  RH WIND       PRES   REMARKS
PHOENIX        MOCLDY    80  27  14 W10       29.61S
BUCKEYE        PTCLDY    75  30  19 SW13      29.64R
GLENDALE       PTCLDY    81  30  16 S6        29.63S
LUKE AFB       PTCLDY    77  32  19 SW8       29.61S
DEER VALLEY    MOCLDY    77  26  15 SW12      29.63S
SCOTTSDALE     MOCLDY    77  23  13 W7        29.65S
MESA-FALCON    PTCLDY   N/A N/A N/A W7        29.62R
CHANDLER       PTCLDY    77  25  14 W7        29.64R
$$

AZZ027-028-280400-
SOUTHWEST MARICOPA COUNTY AND PINAL COUNTY

CITY           SKY/WX    TMP DP  RH WIND       PRES   REMARKS
CASA GRANDE    PTCLDY    75  25  15 SW9       29.68R
GILA BEND      PTCLDY    76  15  10 SW14      29.64R
$$

AZZ503-504-507>509-280400-
SOUTHEAST ARIZONA

CITY           SKY/WX    TMP DP  RH WIND       PRES   REMARKS
TUCSON         CLOUDY    75  21  13 W13G20    29.74R
DAVIS-MONTHAN  PTCLDY    74  22  14 W10       29.72R
RYAN FIELD     CLEAR     75  36  23 W9        29.74R
NOGALES        CLEAR     65  18  16 SW6       29.80R
SIERRA VISTA   CLEAR     66  16  14 SW8       29.83R
DOUGLAS        CLEAR     68  14  12 SW16      29.79R
SAFFORD        CLOUDY    71  20  14 NW10      29.70R
$$

AZZ020-021-025-026-031-280400-
SOUTHWEST ARIZONA

CITY           SKY/WX    TMP DP  RH WIND       PRES   REMARKS
YUMA           MOCLDY    75  47  36 SW17      29.63R
$$

CAZ031-033-041-043-047-048-061-280400-
SOUTHERN CALIFORNIA

CITY           SKY/WX    TMP DP  RH WIND       PRES   REMARKS
DOWNTOWN L.A.  PTCLDY    60  52  74 CALM      29.74S
L.A. AIRPORT   PTCLDY    59  50  72 W28       29.73F
SAN DIEGO      MOCLDY    63  52  67 W8        29.85R
BURBANK        CLEAR     60  51  72 SE12      29.72F
ONTARIO        PTCLDY    59  44  57 SW13      29.76R
RIVERSIDE      CLEAR     62  42  47 SW10      29.76R
PALM SPRINGS   PTCLDY    72  42  34 W14G31    29.64S
EL CENTRO NAS  PTCLDY    73  38  27 W35G40    29.66R
IMPERIAL       PTCLDY    72  39  30 W28G40    29.63R
BLYTHE         MOCLDY    79  43  27 SW23      29.57S
NEEDLES        MOCLDY    79  28  15 S12       29.53F
$$

NVZ020-UTZ003-280400-
SOUTHERN NEVADA-UTAH

CITY           SKY/WX    TMP DP  RH WIND       PRES   REMARKS
LAS VEGAS      CLOUDY    67  31  26 N20       29.56F
SALT LAKE CITY CLOUDY    53  41  63 NW10      29.73R
$$

NMZ009-TXZ055-280400-
NEW MEXICO-WEST TEXAS

CITY           SKY/WX    TMP DP  RH WIND       PRES   REMARKS
ALBUQUERQUE    CLOUDY    64  27  24 N8G20     29.77R
EL PASO        PTCLDY    71  14  11 S3        29.75R
$$


........................KEY........................
SKY/WX - SKY CONDITION/WEATHER
TMP    - TEMPERATURE IN FAHRENHEIT
DP     - DEW POINT IN FAHRENHEIT
RH     - RELATIVE HUMIDITY IN PERCENT
WIND   - DIRECTION AND SPEED IN MILES PER HOUR (MPH)
VRB    - VARIABLE WIND DIRECTION
PRES   - MEAN SEA LEVEL PRESSURE IN INCHES OF MERCURY
         F - FALLING PRESSURE   R - RISING PRESSURE
         S - STEADY PRESSURE
VSB    - VISIBILITY IN MILES
HX     - HEAT INDEX IN FAHRENHEIT
WCI    - WIND CHILL INDEX IN FAHRENHEIT
TC     - TEMPERATURE IN CELSIUS WHICH IS ALSO KNOWN AS
         TEMPERATURE IN CENTIGRADE
AFB    - AIR FORCE BASE
         LUKE AFB IS LUKE AIR FORCE BASE
         DAVIS-MONTHAN IS DAVIS-MONTHAN AIR FORCE BASE
NAS    - NAVAL AIR STATION
         EL CENTRO NAS IS EL CENTRO NAVAL AIR STATION
N/A    - NOT AVAILABLE





USA.gov is the U.S. government's official web portal to all federal, state and local government web resources and services.